Hourly Data Report for October 02, 2017

All times are specified in Local Standard Time (LST). Add 1 hour to adjust for Daylight Saving Time where and when it is observed.

LYNN LAKE
MANITOBA

56°51'50.000" N
101°04'34.000" W
356.60 m
5061645
71078
YYL

Related Data

No related data is available for this station

Download Data

Hourly Data (October 2017)
Hourly Data Report for October 2, 2017
Temp Definition
°C
Dew Point Temp Definition
°C
Rel Hum Definition
%
Wind Dir Definition
10's deg

Wind Spd Definition
km/h
Visibility Definition
km
Stn Press Definition
kPa
Hmdx Definition


Wind Chill Definition


Weather Definition


TIME
00:00 Legend Double Dagger 10.2 9.9 98 4 8 1.6 96.33     Fog
01:00 Legend Double Dagger 10.1 10.0 99 4 5 0.4 96.34     Fog
02:00 Legend Double Dagger 10.1 10.0 99 5 9 0.4 96.34     Fog
03:00 Legend Double Dagger 9.9 9.8 99 1 8 0.4 96.33     Fog
04:00 Legend Double Dagger 9.8 9.7 99 36 8 0.8 96.34     Fog
05:00 Legend Double Dagger 9.7 9.6 99 34 11 0.8 96.40     Fog
06:00 Legend Double Dagger 9.6 9.5 99 35 11 4.8 96.44     Fog
07:00 Legend Double Dagger 9.4 9.3 99 35 11 12.9 96.45     LegendNANA
08:00 Legend Double Dagger 9.4 9.1 98 36 17 16.1 96.51     LegendNANA
09:00 Legend Double Dagger 9.1 8.8 98 1 17 4.8 96.58     Fog
10:00 Legend Double Dagger 8.3 8.0 98 36 22 4.8 96.63     Rain,Fog
11:00 Legend Double Dagger 7.9 7.5 97 36 21 4.0 96.69     Rain,Fog
12:00 Legend Double Dagger 6.5 6.1 97 35 28 9.7 96.75     Fog
13:00 Legend Double Dagger 5.4 5.0 97 36 22 9.7 96.86     Rain,Fog
14:00 Legend Double Dagger 4.7 4.1 96 36 22 16.1 96.96     Rain
15:00 Legend Double Dagger 4.0 3.3 95 36 28 12.9 97.04     LegendNANA
16:00 Legend Double Dagger 3.9 3.0 94 36 28 16.1 97.07     LegendNANA
17:00 Legend Double Dagger 3.6 2.0 89 1 26 16.1 97.17     LegendNANA
18:00 Legend Double Dagger 3.0 0.6 84 2 35 16.1 97.27     Rain
19:00 Legend Double Dagger 3.3 0.5 82 1 26 16.1 97.38     LegendNANA
20:00 Legend Double Dagger 3.0 0.0 81 1 28 16.1 97.47     LegendNANA
21:00 Legend Double Dagger 2.7 -0.7 78 1 21 16.1 97.55     LegendNANA
22:00 Legend Double Dagger 1.5 -1.7 79 1 26 16.1 97.62     LegendNANA
23:00 Legend Double Dagger 1.1 -1.6 82 36 18 16.1 97.67     LegendNANA

Notes on Data Quality.

Legend

  • E = Estimated
  • M = Missing
  • NA = Not Available
  • ‡ = Partner data that is not subject to review by the National Climate Archives
Date modified: